[Date Prev][Date Next][Thread Prev][Thread Next] - [Date Index][Thread Index][Author Index]
2 Line ISS Keps 1-5
- Subject: [sarex] 2 Line ISS Keps 1-5
- From: "Dave Larsen Ph.D." <doc@xxxxxxxxxxx>
- Date: Sun, 5 Jan 2003 04:01:24 -0800
ISS
1 25544U 98067A 03005.17020760 .00028415 00000-0 36955-3 0 5471
2 25544 51.6355 119.1016 0004647 359.9378 66.5923 15.58534135235619
----
Via the sarex mailing list at AMSAT.ORG courtesy of AMSAT-NA.
To unsubscribe, send "unsubscribe sarex" to Majordomo@amsat.org
AMSAT Home